Dallas, TX

5:37 PM CDT on August 30, 2016 (GMT -0500)
Redbird

Weather History for KRBD - December, 2013

Change the Weather History Date:

Thursday, December 19, 2013

  Actual Average Record
Temperature  
Mean Temperature 62 °F -  
Max Temperature 73 °F 53 °F 79 °F (2012)
Min Temperature 51 °F 34 °F 19 °F (1996)
Degree Days  
Heating Degree Days 3    
Growing Degree Days 12 (Base 50)    
Moisture  
Dew Point 54 °F    
Average Humidity 76    
Maximum Humidity 89    
Minimum Humidity 55    
Precipitation  
Precipitation 0.00 in - - ()
Sea Level Pressure  
Sea Level Pressure 29.86 in    
Wind  
Wind Speed 10 mph (South)    
Max Wind Speed 17 mph    
Max Gust Speed 37 mph    
Visibility 10 miles    
Events      
Averages and records for this station are not official NWS values.
T = Trace of Precipitation, MM = Missing Value Source: NWS Daily Summary

Daily Weather History Graph

Daily Weather History Graph

Search for Another Location

Airport or City:

Trip Planner

Search our weather history database for the weather conditions in past years. The results will help you decide how hot, cold, wet, or windy it might be!

Date:

Astronomy

Dec. 19, 2013 Rise Set
Actual Time 7:24 AM CST 5:24 PM CST
Civil Twilight 6:57 AM CST 5:52 PM CST
Nautical Twilight 6:26 AM CST 6:22 PM CST
Astronomical Twilight 5:56 AM CST 6:53 PM CST
Moon 7:45 PM CST (12/19) 8:50 AM CST (12/19)
Length of Visible Light 10h 54m
Length of Day
10h 00m
Waning Gibbous, 95% of the Moon is Illuminated
Dec 19
Waning Gibbous
Dec 25
Last Quarter
Jan 1
New
Jan 7
First Quarter
Jan 15
Full

Hourly Weather History & Observations

Time (CST) Temp. Dew Point Humidity Pressure Visibility Wind Dir Wind Speed Gust Speed Precip Events Conditions
12:53 AM 55.9 °F 46.9 °F 72% 29.98 in 10.0 mi South 9.2 mph 20.7 mph N/A   Clear
1:53 AM 55.0 °F 48.9 °F 80% 29.96 in 10.0 mi South 13.8 mph 21.9 mph N/A   Clear
2:53 AM 55.0 °F 48.9 °F 80% 29.95 in 10.0 mi South 10.4 mph 20.7 mph N/A   Clear
3:53 AM 55.0 °F 50.0 °F 83% 29.94 in 10.0 mi South 12.7 mph 20.7 mph N/A   Clear
4:15 AM 55.4 °F 50.0 °F 82% 29.95 in 10.0 mi South 11.5 mph 19.6 mph N/A   Mostly Cloudy
4:53 AM 55.0 °F 50.0 °F 83% 29.92 in 10.0 mi South 10.4 mph 20.7 mph N/A   Mostly Cloudy
5:09 AM 55.4 °F 50.0 °F 82% 29.93 in 10.0 mi South 10.4 mph - N/A   Scattered Clouds
5:36 AM 53.6 °F 48.2 °F 82% 29.92 in 10.0 mi SSE 8.1 mph - N/A   Mostly Cloudy
5:53 AM 53.1 °F 50.0 °F 89% 29.91 in 10.0 mi SSE 6.9 mph - N/A   Overcast
6:51 AM 51.8 °F 48.2 °F 88% 29.91 in 7.0 mi SSE 9.2 mph - N/A   Mostly Cloudy
6:53 AM 52.0 °F 48.9 °F 89% 29.91 in 7.0 mi SSE 9.2 mph - N/A   Mostly Cloudy
7:18 AM 51.8 °F 48.2 °F 88% 29.91 in 6.0 mi SSE 6.9 mph - N/A   Mostly Cloudy
7:53 AM 53.1 °F 48.9 °F 86% 29.91 in 7.0 mi SSE 6.9 mph - N/A   Mostly Cloudy
8:08 AM 53.6 °F 50.0 °F 88% 29.92 in 8.0 mi South 8.1 mph - N/A   Overcast
8:53 AM 55.0 °F 50.0 °F 83% 29.93 in 10.0 mi South 4.6 mph - N/A   Overcast
9:23 AM 55.4 °F 51.8 °F 88% 29.93 in 10.0 mi SSE 9.2 mph - N/A   Overcast
9:53 AM 57.0 °F 52.0 °F 83% 29.92 in 10.0 mi SSE 9.2 mph - N/A   Overcast
10:31 AM 60.8 °F 53.6 °F 77% 29.92 in 10.0 mi South 8.1 mph - N/A   Overcast
10:53 AM 64.0 °F 55.9 °F 75% 29.89 in 10.0 mi South 11.5 mph 28.8 mph N/A   Overcast
11:53 AM 66.9 °F 55.9 °F 68% 29.86 in 10.0 mi South 8.1 mph 25.3 mph N/A   Overcast
12:39 PM 69.8 °F 57.2 °F 64% 29.83 in 10.0 mi South 11.5 mph 28.8 mph N/A   Mostly Cloudy
12:53 PM 69.1 °F 57.0 °F 65% 29.81 in 10.0 mi South 11.5 mph 26.5 mph N/A   Mostly Cloudy
1:38 PM 71.6 °F 57.2 °F 60% 29.79 in 10.0 mi South 17.3 mph 36.8 mph N/A   Overcast
1:53 PM 72.0 °F 57.0 °F 59% 29.77 in 10.0 mi South 16.1 mph 29.9 mph N/A   Mostly Cloudy
2:53 PM 73.0 °F 55.9 °F 55% 29.76 in 10.0 mi South 13.8 mph 32.2 mph N/A   Partly Cloudy
3:53 PM 73.9 °F 57.0 °F 55% 29.75 in 10.0 mi South 11.5 mph 26.5 mph N/A   Clear
4:53 PM 73.0 °F 55.9 °F 55% 29.74 in 10.0 mi South 11.5 mph 26.5 mph N/A   Clear
5:53 PM 72.0 °F 57.0 °F 59% 29.75 in 10.0 mi South 9.2 mph 19.6 mph N/A   Clear
6:53 PM 70.0 °F 57.0 °F 63% 29.76 in 10.0 mi South 9.2 mph 16.1 mph N/A   Scattered Clouds
7:53 PM 69.1 °F 59.0 °F 70% 29.74 in 10.0 mi SSE 15.0 mph 23.0 mph N/A   Clear
8:53 PM 68.0 °F 59.0 °F 73% 29.76 in 10.0 mi South 11.5 mph 19.6 mph N/A   Clear
9:53 PM 66.9 °F 60.1 °F 79% 29.76 in 10.0 mi South 11.5 mph 20.7 mph N/A   Clear
10:39 PM 66.2 °F 60.8 °F 83% 29.78 in 10.0 mi South 12.7 mph 23.0 mph N/A   Mostly Cloudy
10:53 PM 66.9 °F 61.0 °F 81% 29.76 in 10.0 mi South 13.8 mph 23.0 mph N/A   Overcast
11:53 PM 68.0 °F 61.0 °F 78% 29.75 in 10.0 mi South 10.4 mph 24.2 mph N/A   Overcast